KUIPER-00204

导读

KUIPER-00204是美国亚马逊柯伊伯(Project Kuiper)低轨宽带星座的卫星,于2025年12月15日发射升空。该星座计划部署超3200颗低轨卫星,旨在为全球包括未覆盖和服务不足地区提供高速稳定的宽带互联网接入服务。这颗卫星加入星座网络后,将进一步推进全球卫星互联网组网进程,拓展太空互联网覆盖范围。

基本信息
目录编号:
67145
目录名称:
KUIPER-00204
国际标识:
2025-301N
轨道中心:
EARTH
卫星名称:
KUIPER-00204
卫星全名:
KUIPER-00204
卫星状态:
在轨 (已飞行264 天)
发射日期:
2025-12-15 UTC
国别 :
美国 (US)
星等 :
--
轨道信息
数据来源 国际轨道数据 AOE轨道数据
星历时间 2026-09-05T13:49:03+0800
10小时前
查看轨道信息
2026-09-04T08:00:00+0800
1天前
查看轨道信息
半长轴 7007.69km 7007.665km
偏心率 0.0000432 0.0000287
轨道倾角 51.903° 51.902°
近地点辐角 66.449° 66.156°
升交点赤经 331.658° 337.151°
平近点角 293.652° 150.803°
近地点 629.25km 629.326km
远地点 629.856km 629.73km
周期 97.302分钟 97.302分钟
每日圈数 14.799277 14.799355
详细信息
使用方式:
暂无
2D轨道图
3D轨道图
轨道高度分析图
轨道倾角分析图
轨道综合分析图
查看轨道综合分析图
交会数据列表
事件ID 空间交会对象 最接近时刻(TCA) 交会距离 交会风险概率(CRP) 交会风险指数(CRI) 操作
CDM_260906-010504-005506-714521
CANX-4 (40055)
2026-09-06T
01:05:47+0000
2.962 km
极远距离
1.337681E-6 低风险 0.38